Location: Allonne
(49.4086°N, 2.1143°E)
Time: 09:05:56
(UTC+00:00)

DMSP B5D2-2 - Pass Details

Date: 03 August 2024
Orbit: 787 x 802 km, 98.3° (Epoch: 08 September)

Event Time Altitude Azimuth Distance (km) Brightness Sun altitude
Rises 01:25:01 0° 102° (ESE) 3,286 7.4 -20.4°
Reaches altitude 10° 01:28:49 10° 74° (ENE) 2,359 7.0 -20.2°
Maximum altitude 01:30:49 12° 51° (NE) 2,204 7.2 -20.1°
Drops below altitude 10° 01:32:49 10° 28° (NNE) 2,362 7.7 -19.9°
Sets 01:36:36 0° 360° (N) 3,295 8.4 -19.7°
